Weather History for KHWV - May, 2013

Change the Weather History Date:

Thursday, May 23, 2013

  Actual Average (KISP) Record (KISP)
Temperature  
Mean Temperature 65 °F 61 °F  
Max Temperature 69 °F 70 °F 90 °F (1992)
Min Temperature 62 °F 52 °F 42 °F (2006)
Degree Days  
Heating Degree Days 0 5  
Month to date heating degree days 185  
Since 1 July heating degree days 5356  
Cooling Degree Days 0 1  
Month to date cooling degree days 7  
Year to date cooling degree days 9  
Growing Degree Days 15 (Base 50)    
Moisture  
Dew Point 62 °F    
Average Humidity 94    
Maximum Humidity 100    
Minimum Humidity 83    
Precipitation  
Precipitation 0.38 in 0.13 in 0.68 in (1999)
Month to date precipitation 2.69  
Year to date precipitation 18.37  
Snow  
Snow 0.00 in 0.00 in - ()
Month to date snowfall 0.0  
Since 1 July snowfall 24.8  
Snow Depth -    
Sea Level Pressure  
Sea Level Pressure 29.91 in    
Wind  
Wind Speed 14 mph (SSW)    
Max Wind Speed 24 mph    
Max Gust Speed 32 mph    
Visibility 4 miles    
Events Fog , Rain    
T = Trace of Precipitation, MM = Missing Value Source: NWS Daily Summary

Daily Weather History Graph

Daily Weather History Graph

Search for Another Location

Airport or City:

Trip Planner

Search our weather history database for the weather conditions in past years. The results will help you decide how hot, cold, wet, or windy it might be!

Date:

Astronomy

May. 23, 2013 Rise Set
Actual Time 5:27 AM EDT 8:09 PM EDT
Civil Twilight 4:55 AM EDT 8:41 PM EDT
Nautical Twilight 4:15 AM EDT 9:21 PM EDT
Astronomical Twilight 3:29 AM EDT 10:07 PM EDT
Moon 6:38 PM EDT (5/23) 4:10 AM EDT (5/23)
Length of Visible Light 15h 46m
Length of Day
14h 42m
Waxing Gibbous, 97% of the Moon is Illuminated
May 23
Waxing Gibbous
May 25
Full
May 31
Last Quarter
Jun 8
New
Jun 16
First Quarter

Hourly Weather History & Observations

Time (EDT) Temp. Dew Point Humidity Pressure Visibility Wind Dir Wind Speed Gust Speed Precip Events Conditions
12:56 AM 64.0 °F 61.0 °F 90% 29.92 in 7.0 mi SW 12.7 mph 19.6 mph N/A   Overcast
1:56 AM 64.0 °F 62.1 °F 93% 29.92 in 6.0 mi SSW 12.7 mph 20.7 mph N/A   Overcast
2:56 AM 64.9 °F 62.1 °F 90% 29.90 in 6.0 mi SSW 9.2 mph 19.6 mph N/A   Overcast
3:56 AM 64.0 °F 62.1 °F 93% 29.91 in 6.0 mi SSW 16.1 mph 20.7 mph N/A   Overcast
4:56 AM 64.0 °F 62.1 °F 93% 29.91 in 5.0 mi SSW 10.4 mph 20.7 mph 0.01 in Rain Light Rain
5:35 AM 64.4 °F 62.6 °F 94% 29.91 in 4.0 mi SSW 12.7 mph 23.0 mph 0.07 in Rain Light Rain
5:56 AM 63.0 °F 62.1 °F 97% 29.92 in 2.5 mi South 12.7 mph - 0.08 in Rain Light Rain
6:21 AM 62.6 °F 62.6 °F 100% 29.92 in 1.8 mi SSW 12.7 mph - 0.11 in Rain Heavy Rain
6:37 AM 62.6 °F 60.8 °F 94% 29.93 in 2.5 mi South 13.8 mph 19.6 mph 0.17 in Rain Light Rain
6:46 AM 62.6 °F 60.8 °F 94% 29.93 in 1.2 mi SSW 11.5 mph 19.6 mph 0.17 in   Overcast
6:56 AM 62.1 °F 61.0 °F 96% 29.94 in 1.2 mi SSW 11.5 mph - 0.22 in Rain Heavy Rain
7:16 AM 62.6 °F 62.6 °F 100% 29.94 in 3.0 mi SSW 12.7 mph 23.0 mph 0.03 in Rain Light Rain
7:30 AM 62.6 °F 62.6 °F 100% 29.94 in 1.8 mi SSW 10.4 mph 19.6 mph 0.03 in Rain Light Rain
7:44 AM 62.6 °F 62.6 °F 100% 29.94 in 0.5 mi SSW 17.3 mph 23.0 mph 0.03 in Fog Fog
7:56 AM 63.0 °F 62.1 °F 97% 29.94 in 0.5 mi SSW 12.7 mph 19.6 mph 0.03 in Fog Fog
8:40 AM 62.6 °F 62.6 °F 100% 29.94 in 1.0 mi SSW 11.5 mph 20.7 mph N/A   Overcast
8:56 AM 63.0 °F 62.1 °F 97% 29.95 in 1.2 mi SSW 11.5 mph 17.3 mph N/A   Overcast
9:42 AM 62.6 °F 62.6 °F 100% 29.94 in 0.5 mi SSW 15.0 mph 21.9 mph 0.01 in Fog , Rain Light Rain
9:56 AM 64.0 °F 63.0 °F 96% 29.94 in 0.8 mi SSW 16.1 mph 25.3 mph 0.01 in   Overcast
10:38 AM 64.4 °F 62.6 °F 94% 29.95 in 1.0 mi SSW 16.1 mph 26.5 mph N/A   Overcast
10:47 AM 64.4 °F 62.6 °F 94% 29.95 in 0.8 mi SSW 15.0 mph 26.5 mph N/A   Overcast
10:56 AM 64.0 °F 63.0 °F 96% 29.96 in 1.0 mi SSW 10.4 mph 24.2 mph N/A   Overcast
11:36 AM 64.4 °F 64.4 °F 100% 29.95 in 0.8 mi SSW 13.8 mph 21.9 mph N/A   Overcast
11:56 AM 64.9 °F 64.0 °F 97% 29.94 in 0.8 mi SSW 11.5 mph - N/A   Overcast
12:04 PM 66.2 °F 64.4 °F 94% 29.94 in 1.2 mi SSW 13.8 mph 21.9 mph N/A   Overcast
12:18 PM 66.2 °F 64.4 °F 94% 29.93 in 2.0 mi South 16.1 mph 25.3 mph N/A   Overcast
12:27 PM 66.2 °F 64.4 °F 94% 29.93 in 1.5 mi SSW 13.8 mph 21.9 mph N/A   Overcast
12:51 PM 66.2 °F 64.4 °F 94% 29.92 in 2.5 mi South 19.6 mph 27.6 mph N/A   Overcast
12:56 PM 66.0 °F 64.0 °F 93% 29.93 in 2.0 mi South 16.1 mph 26.5 mph N/A   Overcast
1:29 PM 66.2 °F 64.4 °F 94% 29.91 in 5.0 mi SSW 19.6 mph 29.9 mph N/A   Overcast
1:48 PM 68.0 °F 62.6 °F 83% 29.91 in 7.0 mi SSW 18.4 mph 28.8 mph N/A   Overcast
1:56 PM 66.9 °F 63.0 °F 87% 29.91 in 7.0 mi South 24.2 mph 32.2 mph N/A   Overcast
2:56 PM 66.9 °F 63.0 °F 87% 29.91 in 7.0 mi South 18.4 mph 29.9 mph N/A   Overcast
3:56 PM 68.0 °F 63.0 °F 84% 29.89 in 8.0 mi South 17.3 mph 29.9 mph N/A   Overcast
4:56 PM 66.0 °F 62.1 °F 87% 29.89 in 7.0 mi South 19.6 mph 31.1 mph N/A   Overcast
5:56 PM 64.9 °F 62.1 °F 90% 29.88 in 7.0 mi South 20.7 mph 29.9 mph N/A   Overcast
6:56 PM 64.0 °F 61.0 °F 90% 29.89 in 8.0 mi South 13.8 mph - N/A   Overcast
7:56 PM 64.0 °F 62.1 °F 93% 29.88 in 9.0 mi South 15.0 mph 20.7 mph N/A   Overcast
8:56 PM 63.0 °F 61.0 °F 93% 29.88 in 9.0 mi South 11.5 mph 20.7 mph 0.00 in   Overcast
9:10 PM 62.6 °F 60.8 °F 94% 29.87 in 8.0 mi South 11.5 mph - N/A   Overcast
9:56 PM 63.0 °F 61.0 °F 93% 29.86 in 7.0 mi South 10.4 mph - 0.00 in Rain Light Rain
10:45 PM 62.6 °F 62.6 °F 100% 29.83 in 9.0 mi South 12.7 mph 20.7 mph 0.02 in Rain Light Rain
10:56 PM 63.0 °F 62.1 °F 97% 29.83 in 10.0 mi South 11.5 mph - 0.03 in Rain Light Rain
11:25 PM 62.6 °F 60.8 °F 94% 29.82 in 10.0 mi South 15.0 mph 23.0 mph 0.00 in   Overcast
11:56 PM 64.0 °F 62.1 °F 93% 29.81 in 8.0 mi South 13.8 mph 20.7 mph 0.00 in Rain Light Rain